Regional Weather Roundup
Issued by NWS

Home | Current Version | Previous Version | Text Only | Print | Product List | Glossary Off
Versions: 1 2 3 4 5 6 7 8 9 10 11 12 13 14 15 16 17 18 19 20 21 22 23 24 25 26 27 28 29 30 31 32 33 34 35 36 37 38 39 40 41 42 43 44 45 46 47 48 49 50

000
ASUS44 KOUN 241700
RWROK

WEATHER ROUNDUP FOR OKLAHOMA
NATIONAL WEATHER SERVICE NORMAN OK
1200 PM CDT SUN SEP 24 2017

NOTE: "FAIR" INDICATES FEW OR NO CLOUDS BELOW 12,000 FEET WITH NO
      SIGNIFICANT WEATHER AND/OR OBSTRUCTIONS TO VISIBILITY.

OKZ001>007-009>012-014-015-017-241800-
NORTHWEST OKLAHOMA AND THE PANHANDLE

CITY           SKY/WX    TMP DP  RH WIND       PRES   REMARKS
GAGE           MOSUNNY   71  65  81 S13       29.92F
GUYMON         CLOUDY    67  67 100 S12       29.91S
ENID/WOODRING  MOSUNNY   86  66  51 S20G26    29.92
$$

OKZ016-021>023-033>039-044-045-241800-
SOUTHWEST OKLAHOMA

CITY           SKY/WX    TMP DP  RH WIND       PRES   REMARKS
LAWTON/REGL    MOSUNNY   84  67  56 S12       29.93F
LAWTON/FT SILL PTSUNNY   82  71  68 S13       29.92F
FREDERICK      PTSUNNY   82  65  56 S15       29.88F
CLINTON        CLOUDY    78  65  63 SE15      29.93F
HOBART         CLOUDY    81  65  58 S17       29.92F
ALTUS AFB      CLOUDY    80  65  59 S16       29.91F
$$

OKZ018>020-024>031-241800-
CENTRAL OKLAHOMA

CITY           SKY/WX    TMP DP  RH WIND       PRES   REMARKS
OKLAHOMA CITY  PTSUNNY   84  65  52 S14G26    29.95F
OKC/WILEY POST SUNNY     85  68  56 S20       29.95S
OKC/TINKER AFB MOSUNNY   84  66  54 S15       29.95F
STILLWATER     MOSUNNY   86  65  49 S17G24    29.95F
GUTHRIE        MOSUNNY   86  66  51 S15G23    29.94F
$$

OKZ008-013-054>072-241800-
NORTHEAST OKLAHOMA

CITY           SKY/WX    TMP DP  RH WIND       PRES   REMARKS
TULSA          PTSUNNY   86  70  58 SE13      29.94F HX  90
TULSA/JONES    MOSUNNY   86  68  54 S12G20    29.96F
PONCA CITY     MOSUNNY   86  66  51 S9G20     29.94F
MUSKOGEE       MOSUNNY   85  69  58 VRB6      29.98F
$$

OKZ032-040>043-046>053-073>077-241800-
SOUTH CENTRAL/SOUTHEAST OKLAHOMA

CITY           SKY/WX    TMP DP  RH WIND       PRES   REMARKS
MCALESTER      MOSUNNY   87  70  56 S8        29.97F HX  92
$$





USA.gov is the U.S. government's official web portal to all federal, state and local government web resources and services.